Wind_Speed
13 14 15 16 17 18 18 19 19 19 20 21 21 22 22 21 20 19 20 22 21 18
14 14 14 15 16 16 16 16 17 17 16 16 16 15 16 17 17 17 16 17 18 20
14 15 15 15 15 16 16 15 15 14 14 14 13 13 13 13 14 15 16 18 20 21
16 16 16 16 16 16 16 15 14 13 12 13 13 14 14 14 14 14 14 16 18 18
15 15 15 16 16 16 15 14 13 13 13 13 13 13 13 13 14 14 14 15 16 16
15 16 15 16 15 15 14 14 13 13 12 12 11 11 11 12 12 12 12 12 12 12
16 16 15 14 14 13 13 11 12 11 11 10 9 9 8 8 5 6 7 8 8 9
13 12 11 11 11 12 12 11 11 10 9 7 6 5 4 3 5 5 4 4 4 4
10 10 10 10 9 10 9 9 9 8 6 5 4 6 7 7 7 7 6 5 5 3
11 11 11 10 10 10 9 8 7 7 7 7 7 8 8 9 8 6 5 4 3 1
11 12 12 11 10 10 9 9 7 8 9 8 9 8 7 6 5 4 3 2 0 1
12 13 13 11 10 10 11 11 10 12 11 10 8 7 5 5 4 2 1 1 2 4
13 13 12 10 11 12 13 13 13 12 10 8 6 5 4 3 2 2 2 3 4 6
12 12 11 11 13 14 15 14 13 11 8 6 4 2 2 1 2 3 4 5 6 7
Wind_Direction
262 263 265 266 265 265 264 265 268 271 273 274 275 276 276 274 271 264 260 256 256 256
271 272 272 271 270 269 269 270 273 276 278 279 279 279 276 272 266 261 257 259 261 259
275 276 275 271 269 269 271 273 276 278 279 279 280 279 277 273 267 255 248 251 252 255
274 273 273 271 269 268 270 272 273 273 275 279 281 281 277 271 262 253 241 243 243 245
272 270 268 267 265 264 264 264 265 269 271 275 280 283 281 272 260 250 244 241 242 244
274 270 265 264 262 261 261 261 263 264 268 273 277 281 285 279 252 239 235 237 238 248
278 267 260 258 257 258 255 256 260 262 264 265 267 274 279 288 246 219 226 233 240 243
291 267 259 255 256 253 248 249 254 257 259 257 255 253 228 208 177 192 183 192 194 184
266 266 263 270 267 261 253 247 246 237 220 213 181 141 130 124 130 131 129 138 139 139
254 257 256 259 263 256 240 236 221 193 180 169 148 127 124 118 112 107 114 121 130 165
250 252 253 256 250 232 220 203 191 171 151 146 140 130 119 114 114 116 116 116 119 295
243 246 247 245 231 209 195 185 169 151 145 145 139 133 131 120 105 88 46 350 317 315
235 236 231 218 201 191 182 170 159 159 156 154 158 145 118 101 73 25 345 326 318 316
221 217 209 205 193 181 175 171 171 167 166 173 169 152 159 24 6 343 331 320 314 310
Height
1524 1524 1524 1524 1524 1524 1523 1522 1521 1521 1520 1520 1519 1518 1518 1517 1517 1517 1518 1518 1518 1519
1519 1519 1518 1518 1518 1518 1518 1517 1516 1515 1515 1514 1513 1512 1512 1512 1512 1512 1513 1513 1514 1515
1515 1514 1514 1513 1513 1514 1513 1513 1512 1510 1510 1509 1508 1508 1507 1507 1507 1508 1509 1510 1510 1511
1510 1510 1510 1509 1509 1509 1509 1508 1508 1507 1506 1505 1504 1503 1503 1502 1503 1504 1505 1506 1506 1506
1505 1505 1505 1505 1505 1505 1505 1504 1504 1504 1503 1502 1500 1500 1499 1498 1498 1499 1499 1501 1501 1502
1501 1501 1499 1500 1501 1500 1500 1500 1500 1500 1499 1498 1497 1495 1495 1494 1493 1494 1495 1497 1498 1498
1497 1497 1494 1494 1496 1496 1496 1495 1497 1496 1496 1495 1494 1493 1491 1491 1491 1492 1492 1492 1495 1495
1494 1494 1491 1491 1491 1493 1492 1490 1494 1494 1493 1493 1492 1490 1489 1490 1489 1491 1489 1491 1492 1493
1490 1491 1491 1490 1487 1490 1489 1488 1491 1489 1490 1492 1490 1490 1489 1487 1489 1489 1489 1491 1491 1492
1487 1488 1489 1487 1485 1486 1487 1487 1489 1487 1489 1491 1491 1490 1489 1488 1489 1489 1491 1491 1492 1492
1484 1485 1485 1484 1483 1484 1485 1487 1486 1487 1488 1491 1491 1491 1489 1489 1489 1490 1491 1491 1491 1491
1480 1481 1481 1480 1481 1482 1484 1484 1485 1487 1489 1491 1491 1490 1489 1489 1489 1490 1490 1490 1490 1489
1476 1477 1478 1478 1479 1481 1482 1483 1485 1487 1489 1490 1490 1490 1488 1488 1489 1489 1489 1489 1488 1487
1473 1474 1475 1476 1477 1479 1481 1483 1485 1487 1487 1489 1489 1488 1488 1487 1487 1488 1488 1488 1487 1485